Belleville, IL

6:50 PM CDT on September 18, 2019 (GMT -0500)
Scott Air Force Base-Midamerica

Weather History for KBLV - August, 2019

Change the Weather History Date:

Saturday, August 24, 2019

  Actual Average Record
Temperature  
Mean Temperature 68 °F -  
Max Temperature 77 °F 86 °F 99 °F (1978)
Min Temperature 60 °F 61 °F 50 °F (1966)
Cooling Degree Days 4    
Growing Degree Days 18 (Base 50)    
Moisture  
Dew Point 60 °F    
Average Humidity 73    
Maximum Humidity 93    
Minimum Humidity 53    
Precipitation  
Precipitation 0.00 in - - ()
Sea Level Pressure  
Sea Level Pressure 30.12 in    
Wind  
Wind Speed 6 mph ()    
Max Wind Speed 16 mph    
Max Gust Speed 21 mph    
Visibility 10.0 miles    
Events      
Averages and records for this station are not official NWS values.
T = Trace of Precipitation, MM = Missing Value Source: Averaged Metar Reports

Daily Weather History Graph

Daily Weather History Graph

Search for Another Location

Airport or City:

Astronomy

Aug. 24, 2019 Rise Set
Actual Time 6:21 AM CDT 7:41 PM CDT
Civil Twilight 5:53 AM CDT 8:08 PM CDT
Nautical Twilight 5:20 AM CDT 8:42 PM CDT
Astronomical Twilight 4:45 AM CDT 9:16 PM CDT
Moon 12:15 AM CDT (8/24) 2:55 PM CDT (8/24)
Length of Visible Light 14h 15m
Length of Day
13h 20m
Last Quarter, 39% of the Moon is Illuminated
Aug 24
Last Quarter
Aug 30
New
Sep 5
First Quarter
Sep 13
Full
Sep 21
Last Quarter

Hourly Weather History & Observations

Time (CDT) Temp. Dew Point Humidity Pressure Visibility Wind Dir Wind Speed Gust Speed Precip Events Conditions
12:56 AM 65.3 °F 61.7 °F 88% 30.12 in 10.0 mi ENE 3.5 mph - N/A   Clear
1:56 AM 64.4 °F 61.0 °F 89% 30.13 in 10.0 mi NNE 5.8 mph - N/A   Clear
2:56 AM 63.3 °F 59.7 °F 88% 30.14 in 10.0 mi NE 6.9 mph - N/A   Clear
3:56 AM 62.1 °F 59.0 °F 90% 30.15 in 10.0 mi NE 4.6 mph - N/A   Clear
4:56 AM 60.8 °F 58.5 °F 92% 30.14 in 10.0 mi NE 4.6 mph - N/A   Clear
5:56 AM 60.4 °F 58.5 °F 93% 30.15 in 10.0 mi NNE 3.5 mph - N/A   Clear
6:56 AM 60.6 °F 58.6 °F 93% 30.17 in 10.0 mi Calm Calm - N/A   Clear
7:56 AM 63.1 °F 60.1 °F 90% 30.17 in 10.0 mi ENE 3.5 mph - N/A   Clear
8:56 AM 66.7 °F 60.3 °F 80% 30.17 in 10.0 mi East 5.8 mph - N/A   Clear
9:56 AM 70.7 °F 60.4 °F 70% 30.17 in 10.0 mi East 10.4 mph - N/A   Clear
10:56 AM 73.4 °F 60.4 °F 64% 30.17 in 10.0 mi ESE 10.4 mph 18.4 mph N/A   Clear
11:56 AM 75.6 °F 57.7 °F 54% 30.14 in 10.0 mi East 16.1 mph 20.7 mph N/A   Partly Cloudy
12:56 PM 75.7 °F 57.4 °F 53% 30.12 in 10.0 mi East 12.7 mph - N/A   Clear
1:56 PM 76.3 °F 58.5 °F 54% 30.12 in 10.0 mi East 12.7 mph - 0.00 in   Clear
2:56 PM 76.8 °F 58.8 °F 54% 30.10 in 10.0 mi ESE 12.7 mph - N/A   Partly Cloudy
3:31 PM 77.0 °F 59.0 °F 54% 30.09 in 10.0 mi ENE 6.9 mph - N/A   Light Drizzle
3:35 PM 77.0 °F 59.0 °F 54% 30.09 in 10.0 mi ENE 10.4 mph - N/A   Partly Cloudy
3:56 PM 75.4 °F 58.1 °F 55% 30.09 in 10.0 mi East 9.2 mph - 0.00 in   Partly Cloudy
4:56 PM 76.3 °F 58.8 °F 55% 30.09 in 10.0 mi ENE 10.4 mph - N/A   Clear
5:56 PM 75.0 °F 59.2 °F 58% 30.07 in 10.0 mi ENE 10.4 mph - N/A   Clear
6:56 PM 72.3 °F 59.9 °F 65% 30.08 in 10.0 mi NE 4.6 mph - N/A   Clear
7:56 PM 69.4 °F 60.8 °F 74% 30.08 in 10.0 mi ENE 4.6 mph - N/A   Clear
8:56 PM 67.8 °F 61.3 °F 80% 30.11 in 10.0 mi Calm Calm - N/A   Clear
9:56 PM 67.6 °F 60.8 °F 79% 30.09 in 10.0 mi ENE 4.6 mph - N/A   Overcast
10:56 PM 67.1 °F 60.3 °F 79% 30.08 in 10.0 mi Calm Calm - N/A   Mostly Cloudy
11:56 PM 66.9 °F 60.4 °F 80% 30.08 in 10.0 mi Calm Calm - N/A   Mostly Cloudy